Measurements were made at the meteorological tower in Juelich (50.90 N / 6.40 E) at an altitude of 100 m,
"Instrument: Fast Greenhouse Gas Analyzer (FGGA), Los Gatos Inc.",
Responsible PI: Dr. Marc von Hobe; Forschungszentrum Juelich GmbH; IEK-7; email: m.von.hobe@fz-juelich.de,
NaN or negative numbers are fill values (i.e. no valid measurements were made at that time),
Uncertainties are given as the 1-sigma standard deviation over each 10 minute intervals. In each interval ~600 individual measurements are carried out so that the standard error of the mean is approximately sigma/sqrt(600).,
time_utc,CO2_ppm,stdev_CO2_ppm,CH4_ppm,stdev_CH4_ppm,H2O_ppm,stdev_H2O_ppm
"2014-12-01 00:05:00 000",421.018,0.678433,2.00473,0.00370223,6191.86,120.027
"2014-12-01 00:15:00 000",420.921,0.701809,2.00224,0.00382814,6223.75,130.440
"2014-12-01 00:25:00 000",420.514,0.699354,2.00169,0.00382075,6201.32,137.245
"2014-12-01 00:35:00 000",421.355,0.673280,2.01207,0.00458501,6200.03,149.304
"2014-12-01 00:45:00 000",422.349,1.46043,2.01017,0.00640574,6194.26,163.714
"2014-12-01 00:55:00 000",421.408,0.662710,2.00203,0.00386581,6203.49,155.815
"2014-12-01 01:05:00 000",420.914,0.815161,2.00516,0.00416527,6191.45,165.325
"2014-12-01 01:15:00 000",420.082,0.639807,2.00655,0.00434617,6192.96,178.028
"2014-12-01 01:25:00 000",420.368,0.670632,2.01227,0.00437789,6210.13,168.136
"2014-12-01 01:35:00 000",420.123,0.646373,2.01067,0.00433990,6216.53,178.498
"2014-12-01 01:45:00 000",419.892,0.678437,2.00932,0.00466544,6203.22,176.927
"2014-12-01 01:55:00 000",419.914,0.673496,2.00727,0.00469604,6195.07,180.610
"2014-12-01 02:05:00 000",419.603,0.684464,2.00823,0.00428432,6199.14,194.309
"2014-12-01 02:15:00 000",419.381,0.708102,2.00731,0.00393080,6213.97,191.882
"2014-12-01 02:25:00 000",419.088,0.616205,2.00900,0.00420662,6217.79,195.292
"2014-12-01 02:35:00 000",419.602,0.685329,2.01406,0.00451331,6200.69,187.632
"2014-12-01 02:45:00 000",419.799,0.755308,2.01134,0.00539562,6179.03,179.238
"2014-12-01 02:55:00 000",419.511,0.869545,2.01746,0.00526088,6166.91,178.437
"2014-12-01 03:05:00 000",419.058,0.638305,2.02047,0.00566465,6157.47,186.586
"2014-12-01 03:15:00 000",418.467,0.659048,2.01579,0.00576787,6151.25,192.467
"2014-12-01 03:25:00 000",418.242,0.769730,2.00500,0.00434411,6140.94,177.578
"2014-12-01 03:35:00 000",418.364,0.965519,2.00323,0.00392511,6130.00,170.724
"2014-12-01 03:45:00 000",418.763,0.682069,2.00374,0.00362705,6148.98,167.359
"2014-12-01 03:55:00 000",418.569,0.712447,2.00591,0.00395445,6132.18,171.057
"2014-12-01 04:05:00 000",419.101,0.720912,2.00746,0.00382496,6115.13,179.129
"2014-12-01 04:15:00 000",418.845,0.721099,2.00777,0.00492564,6125.93,171.011
"2014-12-01 04:25:00 000",417.499,0.981443,2.00664,0.00399242,6138.76,162.746
"2014-12-01 04:35:00 000",416.822,0.683701,2.00454,0.00423983,6135.15,176.209
"2014-12-01 04:45:00 000",415.566,0.693628,2.00009,0.00412079,6150.95,173.466
"2014-12-01 04:55:00 000",415.831,0.645548,2.00000,0.00429982,6126.07,157.181
"2014-12-01 05:05:00 000",416.254,0.691409,2.00521,0.00453742,6058.47,169.512
"2014-12-01 05:15:00 000",415.953,0.723572,2.00451,0.00411775,6077.76,158.161
"2014-12-01 05:25:00 000",415.805,0.671288,1.99911,0.00390716,6078.96,153.755
"2014-12-01 05:35:00 000",416.784,0.721583,2.00065,0.00401591,6053.95,144.742
"2014-12-01 05:45:00 000",416.766,0.781852,1.99907,0.00402478,6062.39,140.806
"2014-12-01 05:55:00 000",416.828,0.749131,1.99914,0.00385268,6066.67,139.473
"2014-12-01 06:05:00 000",417.218,0.723025,2.00065,0.00367379,6054.20,139.204
"2014-12-01 06:15:00 000",417.284,0.779091,2.00106,0.00385825,6105.57,146.089
"2014-12-01 06:25:00 000",417.542,0.669773,2.00156,0.00379170,6109.71,148.615
"2014-12-01 06:35:00 000",417.507,0.714013,2.00322,0.00410647,6083.76,151.699
"2014-12-01 06:45:00 000",417.268,0.726443,2.00523,0.00382961,6085.57,144.606
"2014-12-01 06:55:00 000",417.301,0.691653,2.00706,0.00415616,6085.90,147.007
"2014-12-01 07:05:00 000",417.341,0.647148,2.00631,0.00414839,6083.90,147.480
"2014-12-01 07:15:00 000",417.634,0.675232,2.00349,0.00391199,6066.93,146.046
"2014-12-01 07:25:00 000",417.646,0.691862,2.00202,0.00423698,6067.26,150.665
"2014-12-01 07:35:00 000",417.535,0.688769,1.99953,0.00369703,6081.26,146.616
"2014-12-01 07:45:00 000",417.653,0.738788,2.00053,0.00401480,6068.57,149.908
"2014-12-01 07:55:00 000",417.550,0.727453,1.99876,0.00361930,6057.26,143.337
"2014-12-01 08:05:00 000",417.005,0.680047,1.99855,0.00375348,6060.31,140.800
"2014-12-01 08:15:00 000",417.113,0.895112,1.99635,0.00449002,6085.64,127.930
"2014-12-01 08:25:00 000",416.887,0.696081,1.99593,0.00410088,6087.22,126.948
"2014-12-01 08:35:00 000",417.815,0.690449,1.99977,0.00367083,6072.58,123.972
"2014-12-01 08:45:00 000",417.473,0.992642,1.99781,0.00497956,6091.76,119.489
"2014-12-01 08:55:00 000",417.533,0.781717,1.99678,0.00382448,6082.63,115.132
"2014-12-01 09:05:00 000",417.763,0.734699,1.99637,0.00405431,6088.91,113.055
"2014-12-01 09:15:00 000",417.662,0.714932,1.99682,0.00361170,6094.25,106.870
"2014-12-01 09:25:00 000",418.387,0.716272,1.99932,0.00367914,6069.91,97.8109
"2014-12-01 09:35:00 000",418.037,0.729163,1.99633,0.00350104,6096.79,97.5698
"2014-12-01 09:45:00 000",418.843,0.920304,1.99788,0.00338481,6099.39,91.7704
"2014-12-01 09:55:00 000",420.062,0.717203,1.99893,0.00328457,6099.53,95.2983
"2014-12-01 10:05:00 000",419.636,1.32963,2.00142,0.00433637,6089.53,89.1173
"2014-12-01 10:15:00 000",418.107,0.707136,1.99902,0.00412049,6029.16,88.2418
"2014-12-01 10:25:00 000",419.343,1.02564,2.00005,0.00342548,6004.81,92.4361
"2014-12-01 10:35:00 000",419.185,1.13261,2.00116,0.00344561,5972.54,96.5126
"2014-12-01 10:45:00 000",417.376,0.816637,2.00171,0.00314042,5958.97,85.3529
"2014-12-01 10:55:00 000",417.144,0.656745,2.00130,0.00312953,5930.50,88.5969
"2014-12-01 11:05:00 000",417.464,0.640148,2.00446,0.00371715,5929.66,89.3110
"2014-12-01 11:15:00 000",418.191,0.744986,2.00902,0.00355577,5936.10,87.8257
"2014-12-01 11:25:00 000",418.733,0.742703,2.00716,0.00343636,5923.28,86.7427
"2014-12-01 11:35:00 000",418.806,0.809037,2.00716,0.00381668,5898.42,86.4829
"2014-12-01 11:45:00 000",420.012,0.900302,2.00107,0.00444254,5868.91,92.3706
"2014-12-01 11:55:00 000",419.287,0.765029,2.00165,0.00507030,5855.94,92.4851
"2014-12-01 12:05:00 000",418.267,1.00188,2.00225,0.00397145,5825.30,93.1777
"2014-12-01 12:15:00 000",418.607,0.661264,2.00046,0.00393199,5819.06,90.9084
"2014-12-01 12:25:00 000",417.730,1.01676,1.99773,0.00345574,5824.16,93.7305
"2014-12-01 12:35:00 000",417.384,0.644401,1.99694,0.00318586,5805.40,92.5424
"2014-12-01 12:45:00 000",416.466,0.805109,1.99463,0.00349054,5786.85,92.7212
"2014-12-01 12:55:00 000",416.525,0.688711,1.99314,0.00322633,5792.43,90.0233
"2014-12-01 13:05:00 000",417.246,0.680086,1.99484,0.00374987,5794.14,92.7079
"2014-12-01 13:15:00 000",417.183,0.668337,2.00211,0.00455979,5787.84,87.0830
"2014-12-01 13:25:00 000",416.457,0.698631,2.00435,0.00399406,5786.85,87.5189
"2014-12-01 13:35:00 000",418.230,1.17725,1.99976,0.00409800,5775.12,83.6225
"2014-12-01 13:45:00 000",417.888,1.12350,2.00133,0.00450612,5761.81,88.1202
"2014-12-01 13:55:00 000",416.313,0.743853,2.00373,0.00386705,5774.70,85.5186
"2014-12-01 14:05:00 000",416.094,0.665584,2.00728,0.00384965,5787.58,89.1539
"2014-12-01 14:15:00 000",416.428,0.659383,2.00738,0.00426431,5805.71,84.4976
"2014-12-01 14:25:00 000",416.641,0.661320,2.02165,0.00783878,5821.09,84.6593
"2014-12-01 14:35:00 000",416.795,0.702413,2.01493,0.0100964,5837.58,85.9494
"2014-12-01 14:45:00 000",416.890,0.666809,2.00858,0.00386099,5835.33,88.3202
"2014-12-01 14:55:00 000",416.851,0.722893,2.00670,0.00351293,5829.23,84.9439
"2014-12-01 15:05:00 000",416.835,0.723329,2.01333,0.00482470,5829.43,87.1156
"2014-12-01 15:15:00 000",417.296,0.748917,2.01478,0.00644035,5843.36,83.5601
"2014-12-01 15:25:00 000",416.636,0.963944,2.00359,0.00712825,5859.01,84.4144
"2014-12-01 15:35:00 000",415.269,1.14674,1.99357,0.00543122,5909.70,85.1978
"2014-12-01 15:45:00 000",415.057,0.683624,1.99055,0.00328551,5919.23,87.4170
"2014-12-01 15:55:00 000",415.447,0.818215,1.99130,0.00313704,5927.24,86.6865
"2014-12-01 16:05:00 000",416.155,0.807038,1.99042,0.00313081,5913.26,86.3408
"2014-12-01 16:15:00 000",416.963,0.848030,1.99208,0.00335613,5931.75,82.6064
"2014-12-01 16:25:00 000",417.443,0.740886,1.99474,0.00360391,5940.22,84.0211
"2014-12-01 16:35:00 000",417.702,0.696509,2.00145,0.00350713,5942.23,84.6413
"2014-12-01 16:45:00 000",419.998,2.28409,2.00605,0.00456531,5942.02,88.2940
"2014-12-01 16:55:00 000",425.429,1.07225,2.01766,0.00372151,5944.31,83.4148
"2014-12-01 17:05:00 000",426.860,0.937525,2.02247,0.00382730,5965.75,81.6819
"2014-12-01 17:15:00 000",426.117,0.954327,2.02127,0.00378132,5966.12,81.3362
"2014-12-01 17:25:00 000",425.369,1.01774,2.02255,0.00400721,6005.29,90.2777
"2014-12-01 17:35:00 000",424.562,1.06122,2.01807,0.00469942,6034.64,84.8029
"2014-12-01 17:45:00 000",425.014,1.00251,2.01763,0.00398212,6015.91,87.8002
"2014-12-01 17:55:00 000",425.349,0.835260,2.01833,0.00340725,6005.62,83.7855
"2014-12-01 18:05:00 000",424.387,0.774329,2.01734,0.00342776,6044.66,93.8285
"2014-12-01 18:15:00 000",424.362,0.879667,2.01627,0.00344117,6037.28,83.6801
"2014-12-01 18:25:00 000",424.222,1.08673,2.01606,0.00477480,6026.85,84.0690
"2014-12-01 18:35:00 000",425.146,0.895394,2.02547,0.00613425,5985.64,81.3207
"2014-12-01 18:45:00 000",425.242,0.973278,2.03189,0.00398301,5955.89,82.6687
"2014-12-01 18:55:00 000",425.517,0.717104,2.02987,0.00339145,5978.47,84.0625
"2014-12-01 19:05:00 000",427.426,0.855354,2.04309,0.00788758,6011.03,86.2433
"2014-12-01 19:15:00 000",427.223,0.880563,2.04690,0.00734063,5998.22,83.7643
"2014-12-01 19:25:00 000",426.805,0.757183,2.04092,0.00403384,5962.92,78.2247
"2014-12-01 19:35:00 000",427.358,0.877302,2.03602,0.00582071,5999.43,79.0986
"2014-12-01 19:45:00 000",427.304,1.76967,2.04230,0.00875879,6025.83,87.5150
"2014-12-01 19:55:00 000",426.202,1.67477,2.05279,0.00954336,6028.59,86.3167
"2014-12-01 20:05:00 000",423.802,2.25087,2.07206,0.00838401,6024.93,85.1953
"2014-12-01 20:15:00 000",414.455,2.99174,2.01754,0.0219493,5955.26,90.0999
"2014-12-01 20:25:00 000",411.764,0.734871,1.99818,0.00342492,5809.08,85.3167
"2014-12-01 20:35:00 000",411.899,0.737437,1.99363,0.00437458,5736.99,84.3569
"2014-12-01 20:45:00 000",411.925,0.836120,1.99343,0.00325422,5709.97,84.4426
"2014-12-01 20:55:00 000",412.556,0.807222,1.99415,0.00370448,5725.35,85.7033
"2014-12-01 21:05:00 000",412.322,0.778236,1.99384,0.00402859,5720.83,83.8726
"2014-12-01 21:15:00 000",412.315,0.711419,1.99459,0.00332434,5700.38,83.3442
"2014-12-01 21:25:00 000",412.651,0.678020,1.98834,0.00349856,5665.44,84.2110
"2014-12-01 21:35:00 000",412.911,0.644656,1.99084,0.00360986,5648.85,91.5739
"2014-12-01 21:45:00 000",412.314,0.718715,1.99174,0.00340819,5649.54,87.3720
"2014-12-01 21:55:00 000",412.599,0.752641,1.99116,0.00326823,5642.77,87.7326
"2014-12-01 22:05:00 000",412.869,0.635631,1.99144,0.00327170,5623.20,87.2551
"2014-12-01 22:15:00 000",412.929,0.679489,1.99403,0.00365801,5602.66,90.9961
"2014-12-01 22:25:00 000",412.771,0.695163,1.99331,0.00396918,5594.06,93.2487
"2014-12-01 22:35:00 000",412.881,0.702732,1.99288,0.00332573,5596.71,89.2605
"2014-12-01 22:45:00 000",413.416,0.643091,1.99480,0.00315082,5565.77,91.4046
"2014-12-01 22:55:00 000",413.995,0.685777,1.99949,0.00450790,5581.62,88.7373
"2014-12-01 23:05:00 000",414.182,0.659074,2.00024,0.00327578,5620.73,87.5221
"2014-12-01 23:15:00 000",413.854,0.684069,1.99980,0.00361143,5640.92,98.2252
"2014-12-01 23:25:00 000",414.072,0.674793,1.99838,0.00390913,5636.79,106.294
"2014-12-01 23:35:00 000",414.100,0.656112,1.99854,0.00385565,5620.40,102.334
"2014-12-01 23:45:00 000",413.627,0.811340,1.99845,0.00527056,5674.26,99.4704
"2014-12-01 23:55:00 000",413.099,0.619308,1.99622,0.00321030,5606.35,92.4874
"2014-12-02 00:05:00 000",413.297,0.657825,1.99675,0.00317821,5613.66,94.7017
"2014-12-02 00:15:00 000",413.664,0.657752,1.99736,0.00334776,5623.43,82.5780
"2014-12-02 00:25:00 000",413.588,0.659648,1.99602,0.00322222,5635.75,85.8310
"2014-12-02 00:35:00 000",413.477,0.686445,1.99654,0.00326263,5654.45,79.6415
"2014-12-02 00:45:00 000",414.385,0.705259,2.00466,0.00553377,5667.64,86.8044
"2014-12-02 00:55:00 000",415.079,0.784495,1.99729,0.00547720,5690.67,81.2155
"2014-12-02 01:05:00 000",413.995,0.722350,1.99148,0.00312344,5706.47,83.1357
"2014-12-02 01:15:00 000",413.397,0.692341,1.99082,0.00316160,5736.33,94.3464
"2014-12-02 01:25:00 000",414.403,0.771339,1.99063,0.00331858,5771.54,90.3128
"2014-12-02 01:35:00 000",414.156,0.694282,1.98949,0.00334631,5758.45,96.8625
"2014-12-02 01:45:00 000",414.049,0.709585,1.98954,0.00369979,5755.07,106.517
"2014-12-02 01:55:00 000",413.765,0.800643,1.99145,0.00360937,5770.36,104.275
"2014-12-02 02:05:00 000",414.064,0.685059,1.99168,0.00400183,5768.57,123.008
"2014-12-02 02:15:00 000",413.883,0.712610,1.99530,0.00367848,5779.80,134.672
"2014-12-02 02:25:00 000",414.441,0.714077,2.00200,0.00419168,5787.25,142.964
"2014-12-02 02:35:00 000",415.225,0.648651,2.00798,0.00451186,5780.58,148.344
"2014-12-02 02:45:00 000",415.677,0.694107,2.00911,0.00430884,5762.14,144.908
"2014-12-02 02:55:00 000",416.233,0.633151,2.01073,0.00381943,5777.14,150.233
"2014-12-02 03:05:00 000",415.873,0.685178,2.01091,0.00418763,5767.29,148.032
"2014-12-02 03:15:00 000",416.006,0.710077,2.00624,0.00595207,5763.46,128.640
"2014-12-02 03:25:00 000",415.551,0.714896,1.99724,0.00433683,5759.87,124.529
"2014-12-02 03:35:00 000",415.422,0.753737,2.00167,0.00539860,5783.85,125.247
"2014-12-02 03:45:00 000",414.932,0.732386,2.00118,0.00446337,5773.30,130.577
"2014-12-02 03:55:00 000",414.144,0.690810,1.99760,0.00420727,5770.89,132.515
"2014-12-02 04:05:00 000",414.283,0.775156,1.99590,0.00423282,5757.90,141.149
"2014-12-02 04:15:00 000",414.115,0.668777,1.99657,0.00451531,5753.63,137.836
"2014-12-02 04:25:00 000",414.183,0.677284,2.00295,0.00431592,5753.96,138.903
"2014-12-02 04:35:00 000",414.675,0.676198,2.00659,0.00698081,5740.61,147.138
"2014-12-02 04:45:00 000",415.072,0.645088,2.01062,0.00479639,5740.25,139.323
"2014-12-02 04:55:00 000",415.309,0.671705,2.01011,0.00397503,5762.06,140.570
"2014-12-02 05:05:00 000",415.560,0.766111,2.01169,0.00391578,5777.64,127.821
"2014-12-02 05:15:00 000",415.644,0.915281,2.00716,0.00815363,5761.72,118.373
"2014-12-02 05:25:00 000",415.216,0.624278,1.99706,0.00401763,5737.23,111.150
"2014-12-02 05:35:00 000",415.552,0.715830,1.99624,0.00348265,5767.99,109.226
"2014-12-02 05:45:00 000",415.810,0.667718,1.99777,0.00343470,5762.03,113.189
"2014-12-02 05:55:00 000",416.194,0.642275,1.99912,0.00333296,5780.17,102.417
"2014-12-02 06:05:00 000",416.923,0.745195,2.00373,0.00488462,5807.93,112.547
"2014-12-02 06:15:00 000",417.320,0.689072,2.01895,0.00829609,5891.41,287.698
"2014-12-02 06:25:00 000",413.846,0.867507,2.01034,0.00664155,12724.3,1313.77
"2014-12-02 06:35:00 000",413.265,0.673271,1.99453,0.00472292,13693.0,178.727
"2014-12-02 06:45:00 000",412.309,0.789575,1.98324,0.00547614,14050.7,520.219
"2014-12-02 06:55:00 000",409.450,0.893524,1.96445,0.00674721,20594.0,1242.72
"2014-12-02 07:05:00 000",408.006,0.857215,1.95186,0.00452776,22472.8,491.813
"2014-12-02 07:15:00 000",407.921,0.798840,1.94930,0.00379550,23356.9,132.234
"2014-12-02 07:25:00 000",408.584,0.685033,1.95248,0.00365479,22614.1,622.234
"2014-12-02 07:35:00 000",408.914,0.757491,1.95299,0.00364662,21765.1,759.252
"2014-12-02 07:45:00 000",408.700,0.742124,1.95149,0.00370731,23078.7,320.378
"2014-12-02 07:55:00 000",409.932,0.730011,1.95848,0.00491779,20798.9,1188.59
"2014-12-02 08:05:00 000",410.518,0.738521,1.96554,0.00376718,18909.8,231.540
"2014-12-02 08:15:00 000",411.395,0.744195,1.96964,0.00363231,17937.1,355.915
"2014-12-02 08:25:00 000",412.474,0.754433,1.97305,0.00421572,16510.1,692.991
"2014-12-02 08:35:00 000",413.820,0.667655,1.97804,0.00347522,14418.0,383.502
"2014-12-02 08:45:00 000",414.562,0.633238,1.98094,0.00421530,13449.4,255.768
"2014-12-02 08:55:00 000",414.703,0.684280,1.98381,0.00353922,12683.2,196.234
"2014-12-02 09:05:00 000",415.733,0.706948,1.98750,0.00345052,12286.0,129.658
"2014-12-02 09:15:00 000",415.713,0.675413,1.98721,0.00352196,11990.7,125.481
"2014-12-02 09:25:00 000",415.713,0.805559,1.98999,0.00337212,11613.1,170.169
"2014-12-02 09:35:00 000",416.023,0.847794,1.99183,0.00338008,11144.5,171.898
"2014-12-02 09:45:00 000",416.365,0.797521,1.99243,0.00353858,10689.7,118.178
"2014-12-02 09:55:00 000",416.826,0.797835,1.99309,0.00326811,10422.9,119.964
"2014-12-02 10:05:00 000",417.247,0.770275,1.99345,0.00321058,10120.0,107.207
"2014-12-02 10:15:00 000",417.182,0.808262,1.98975,0.00342189,9854.15,122.155
"2014-12-02 10:25:00 000",418.051,0.899698,1.98913,0.00329070,9591.68,106.946
"2014-12-02 10:35:00 000",418.931,0.823014,1.98686,0.00333094,9402.94,96.8068
"2014-12-02 10:45:00 000",419.088,0.684310,1.98452,0.00321824,9006.80,179.027
"2014-12-02 10:55:00 000",419.429,0.725336,1.98638,0.00347015,8672.58,120.366
"2014-12-02 11:05:00 000",422.580,3.17834,1.99838,0.0109109,8593.86,99.9874
"2014-12-02 11:15:00 000",430.021,1.50691,2.02956,0.00734436,8653.35,89.7271
"2014-12-02 11:25:00 000",430.638,0.746637,2.03918,0.00749369,9124.55,490.315
"2014-12-02 11:35:00 000",429.853,1.07904,2.02433,0.0101160,10034.2,123.681
"2014-12-02 11:45:00 000",427.605,1.48805,2.01493,0.00495493,9148.00,375.721
"2014-12-02 11:55:00 000",425.149,0.925333,2.01092,0.00366122,8482.58,143.328
"2014-12-02 12:05:00 000",425.251,0.729893,2.01167,0.00436360,8191.20,124.995
"2014-12-02 12:15:00 000",426.528,0.713050,2.01303,0.00447103,7877.35,141.820
"2014-12-02 12:25:00 000",426.780,0.741249,2.00840,0.00353420,7647.49,139.032
"2014-12-02 12:35:00 000",427.415,0.707503,2.01200,0.00395771,7422.88,161.998
"2014-12-02 12:45:00 000",428.007,0.820972,2.01071,0.00400649,7225.10,157.112
"2014-12-02 12:55:00 000",427.232,0.762634,2.01090,0.00377101,6974.73,196.768
"2014-12-02 13:05:00 000",426.593,0.747562,2.01141,0.00407064,6786.29,189.027
"2014-12-02 13:15:00 000",426.182,1.00247,2.01360,0.00490435,6678.97,214.294
"2014-12-02 13:25:00 000",425.228,0.866116,2.01360,0.00474747,6550.19,217.756
"2014-12-02 13:35:00 000",425.941,0.972375,2.02127,0.00586805,6472.63,215.924
"2014-12-02 13:45:00 000",426.748,0.990553,2.02739,0.00546128,6381.28,219.732
"2014-12-02 13:55:00 000",427.821,0.791089,2.02738,0.00545456,6306.31,225.727
"2014-12-02 14:05:00 000",427.132,0.790062,2.02135,0.00501517,6263.76,214.743
"2014-12-02 14:15:00 000",430.371,1.81626,2.01887,0.00466677,6211.95,221.227
"2014-12-02 14:25:00 000",433.480,0.838244,2.01893,0.00491649,6160.83,238.919
"2014-12-02 14:35:00 000",435.254,1.08461,2.01676,0.00478287,6150.29,231.347
"2014-12-02 14:45:00 000",436.855,1.07354,2.01703,0.00482111,6003.32,247.999
"2014-12-02 14:55:00 000",438.441,0.676743,2.01821,0.00457580,5944.55,230.360
"2014-12-02 15:05:00 000",439.812,1.01174,2.02495,0.00527037,5968.17,218.088
"2014-12-02 15:15:00 000",443.384,0.961567,2.03957,0.00586141,5919.12,205.953
"2014-12-02 15:25:00 000",442.889,1.36977,2.04762,0.00488028,5867.96,202.365
"2014-12-02 15:35:00 000",443.202,1.04382,2.06509,0.0103364,5849.24,202.383
"2014-12-02 15:45:00 000",444.301,0.716146,2.10999,0.0144086,5833.68,208.839
"2014-12-02 15:55:00 000",443.924,0.749844,2.14251,0.0125717,5803.30,194.793
"2014-12-02 16:05:00 000",442.095,1.03638,2.16201,0.00777567,5744.36,200.862
"2014-12-02 16:15:00 000",440.574,0.841515,2.13478,0.0110520,5760.89,201.714
"2014-12-02 16:25:00 000",438.312,1.20232,2.10710,0.00785415,5743.95,204.820
"2014-12-02 16:35:00 000",436.017,1.08898,2.10037,0.00478641,5723.08,222.554
"2014-12-02 16:45:00 000",434.287,0.928417,2.09878,0.00574169,5687.90,200.071
"2014-12-02 16:55:00 000",433.074,0.862685,2.08176,0.0116061,5672.90,196.578
"2014-12-02 17:05:00 000",432.554,0.716946,2.05831,0.00703251,5652.18,196.969
"2014-12-02 17:15:00 000",431.783,0.767715,2.04062,0.00690995,5615.15,203.111
"2014-12-02 17:25:00 000",430.883,0.705761,2.03081,0.00450419,5594.45,194.925
"2014-12-02 17:35:00 000",430.878,0.705216,2.02810,0.00409546,5582.47,192.774
"2014-12-02 17:45:00 000",431.058,0.678397,2.02690,0.00413627,5576.99,198.396
"2014-12-02 17:55:00 000",431.201,0.674274,2.02566,0.00417849,5547.69,196.453
"2014-12-02 18:05:00 000",430.973,0.712996,2.02644,0.00414289,5543.31,200.788
"2014-12-02 18:15:00 000",430.793,0.710841,2.02760,0.00407539,5535.73,195.166
"2014-12-02 18:25:00 000",430.118,0.886748,2.02964,0.00410990,5540.67,192.951
"2014-12-02 18:35:00 000",428.723,0.831166,2.03147,0.00382424,5556.99,174.409
"2014-12-02 18:45:00 000",428.115,0.643312,2.03172,0.00389137,5580.31,173.341
"2014-12-02 18:55:00 000",428.214,0.718221,2.03389,0.00399500,5593.67,159.693
"2014-12-02 19:05:00 000",428.426,0.767628,2.03414,0.00376812,5596.43,149.850
"2014-12-02 19:15:00 000",427.744,0.745499,2.03205,0.00402954,5565.95,130.137
"2014-12-02 19:25:00 000",426.957,1.10644,2.02979,0.00367262,5566.05,110.336
"2014-12-02 19:35:00 000",425.683,0.801523,2.02561,0.00354782,5616.24,109.841
"2014-12-02 19:45:00 000",426.442,0.858779,2.02603,0.00368617,5601.39,102.724
"2014-12-02 19:55:00 000",426.576,0.713468,2.02256,0.00340055,5596.16,106.865
"2014-12-02 20:05:00 000",426.663,0.672665,2.02325,0.00337998,5574.24,109.525
"2014-12-02 20:15:00 000",426.211,0.690092,2.02406,0.00341855,5556.33,110.646
"2014-12-02 20:25:00 000",426.640,0.748349,2.02754,0.00382170,5523.34,124.672
"2014-12-02 20:35:00 000",425.974,0.691452,2.02752,0.00381725,5506.34,115.721
"2014-12-02 20:45:00 000",425.835,0.642027,2.02844,0.00344605,5510.55,113.487
"2014-12-02 20:55:00 000",425.873,0.673341,2.03037,0.00344124,5491.94,120.023
"2014-12-02 21:05:00 000",426.214,0.698082,2.03151,0.00361154,5470.45,117.974
"2014-12-02 21:15:00 000",426.500,0.697978,2.03241,0.00355749,5435.38,115.537
"2014-12-02 21:25:00 000",426.174,0.709407,2.03230,0.00347855,5415.78,120.662
"2014-12-02 21:35:00 000",426.007,0.668162,2.03031,0.00364187,5409.12,111.600
"2014-12-02 21:45:00 000",425.875,0.716075,2.02562,0.00376372,5412.69,126.046
"2014-12-02 21:55:00 000",425.292,0.712594,2.02350,0.00351781,5400.04,132.094
"2014-12-02 22:05:00 000",425.335,0.718621,2.02492,0.00352859,5423.40,134.495
"2014-12-02 22:15:00 000",425.598,0.706372,2.02630,0.00366338,5425.47,131.903
"2014-12-02 22:25:00 000",425.085,0.700708,2.02534,0.00371866,5423.52,134.816
"2014-12-02 22:35:00 000",424.816,0.689902,2.02406,0.00379835,5402.72,141.705
"2014-12-02 22:45:00 000",424.679,0.672366,2.02329,0.00361865,5391.04,127.192
"2014-12-02 22:55:00 000",424.303,0.739652,2.02496,0.00365845,5353.25,141.645
"2014-12-02 23:05:00 000",423.024,0.683170,2.02051,0.00365711,5354.14,129.381
"2014-12-02 23:15:00 000",423.027,0.679332,2.01931,0.00363901,5367.51,129.796
"2014-12-02 23:25:00 000",423.775,0.676797,2.01942,0.00373917,5361.13,136.622
"2014-12-02 23:35:00 000",424.639,0.694992,2.02145,0.00350973,5365.92,144.256
"2014-12-02 23:45:00 000",426.161,0.989649,2.02682,0.00458759,5355.45,141.870
"2014-12-02 23:55:00 000",427.720,0.702067,2.03438,0.00406631,5337.99,146.744
"2014-12-03 00:05:00 000",427.671,0.650823,2.03874,0.00389915,5305.10,163.148
"2014-12-03 00:15:00 000",428.472,0.840053,2.04411,0.00425272,5296.92,177.709
"2014-12-03 00:25:00 000",430.189,0.789312,2.04900,0.00417897,5321.74,182.794
"2014-12-03 00:35:00 000",430.504,0.745146,2.05224,0.00451296,5314.39,192.010
"2014-12-03 00:45:00 000",430.730,0.718574,2.05567,0.00432790,5272.17,204.782
"2014-12-03 00:55:00 000",429.615,0.780106,2.05583,0.00406584,5259.60,170.244
"2014-12-03 01:05:00 000",430.355,1.00534,2.07275,0.0126589,5257.18,156.785
"2014-12-03 01:15:00 000",431.832,0.733492,2.11258,0.0123781,5247.47,161.120
"2014-12-03 01:25:00 000",431.520,0.838813,2.13898,0.00603943,5207.68,170.295
"2014-12-03 01:35:00 000",431.716,0.742675,2.14528,0.00438566,5216.04,163.968
"2014-12-03 01:45:00 000",430.789,1.16499,2.12716,0.0163118,5232.11,161.214